Submittal Forms
Current Contests
Recent Contests

Club Activity Tracker - Potomac Valley Radio Club (from club selection on form)

Recent postings for the selected club or group are listed below. Other than the call used, all calls listed are only those associated with the club or group. Click on a call to see the details of the posting.
Status Key: new=new posting, update=update prior posting, move=change club/group, delete=delete prior posting.

Sort by   for past

TimestampCallContestClassPowerScoreStatus
2021-05-14 23:08:20KS4SCWopsTSingle OpLP225new6420
2021-05-14 21:05:21KW2AKRC SSTSingle OpQRP70new6426
2021-05-14 21:01:30N3QEKRC SSTSingle OpHP330new6426
2021-05-14 03:02:58WJ9BNCCC SprintSingle OpLP1,702new6425
2021-05-14 03:01:53K7SVNCCC SprintSingle OpLP1,786new6425
2021-05-14 03:01:44N3QENCCC RY-SprintSingle OpLP510new6424
2021-05-14 03:01:03N3QENCCC SprintSingle OpLP1,505new6425
2021-05-14 02:21:16NR4ONCCC RY-SprintSingle OpLP128new6424
2021-05-14 01:20:17K4GMCWopsTSingle OpLP1,600new6421
2021-05-13 04:15:59N2YOCWopsTSingle OpLP7,740new6421
 
2021-05-13 04:06:54WA4JUKCWopsTSingle OpHP4,690new6421
2021-05-13 04:04:31K7SVCWopsTSingle OpLP22,240new6421
2021-05-13 04:03:37NA4JCWopsTSingle OpHP6,205new6421
2021-05-13 04:03:19K3JTCWopsTSingle OpHP5,810new6421
2021-05-13 04:02:25WJ9BCWopsTSingle OpLP17,125new6421
2021-05-13 04:00:30N3QECWopsTSingle OpHP22,201new6421
2021-05-13 03:58:17W4YECWopsTSingle OpLP1,892new6421
2021-05-13 03:41:25AC3U(W3UL)CWopsTSingle OpLP625new6421
2021-05-13 03:31:36K1BZCWopsTSingle OpHP625new6421
2021-05-12 23:14:09N3QECWopsTSingle OpQRP529new6419
 
2021-05-12 23:12:54N3QECWopsTSingle OpHP1,024new6420
2021-05-12 21:39:17K4HQKCWopsTSingle OpHP2,304new6420
2021-05-12 21:38:50AC5XKCWopsTSingle OpQRP361new6420
2021-05-12 21:07:56K4GMCWopsTSingle OpLP1,024new6420
2021-05-12 20:50:31N2YOCWopsTSingle OpHP4,095new6420
2021-05-12 20:12:20N4KWCWopsTSingle OpHP4,624new6420
2021-05-12 20:05:02WA3AERCWopsTSingle OpHP4,761new6420
2021-05-12 20:05:02K7SVCWopsTSingle OpLP14,161new6420
2021-05-12 20:03:13N3CKICWopsTSingle OpLP3,968new6420
2021-05-12 20:03:00W3ULCWopsTSingle OpHP3,844new6420
 
2021-05-12 20:02:33KE4SCWopsTSingle OpHP3,025new6420
2021-05-12 20:01:43K3JTCWopsTSingle OpHP9,024new6420
2021-05-12 20:01:40N1LNCWopsTSingle OpHP39,179new6420
2021-05-12 20:01:22WA4JUKCWopsTSingle OpHP2,500new6420
2021-05-12 19:59:22NJ4QCWopsTSingle OpLP1,225new6420
2021-05-12 19:35:30NA4JCWopsTSingle OpHP784new6420
2021-05-12 19:27:01N4CWZCWopsTSingle OpLP121new6420
2021-05-12 15:18:34W2CDOCWopsTSingle OpHP225new6419
2021-05-12 14:28:18N3HEECWopsTSingle OpLP9,409new6419
2021-05-12 14:26:33K4GMCWopsTSingle OpLP3,969new6419
 
2021-05-12 14:12:31N4KWCWopsTSingle OpHP1,640new6419
2021-05-12 14:06:11WA3AERCWopsTSingle OpHP6,075new6419
2021-05-12 14:05:07K7SVCWopsTSingle OpLP22,040new6419
2021-05-12 14:04:00AC3U(W3UL)CWopsTSingle OpLP2,703new6419
2021-05-12 14:03:18N1LNCWopsTSingle OpHP44,298new6419
2021-05-12 14:02:52WJ9BCWopsTSingle OpLP6,308new6419
2021-05-12 14:02:37K3JTCWopsTSingle OpHP10,201new6419
2021-05-12 14:02:32KE4SCWopsTSingle OpHP5,402new6419
2021-05-12 14:02:24N3AMCWopsTSingle OpHP19,720new6419
2021-05-12 14:01:58K1BZCWopsTSingle OpHP3,300new6419
 
2021-05-12 14:01:34N4ZRCWopsTSingle OpHP7,056new6419
2021-05-12 13:42:47K3GHH/5(@K3GHH)CWopsTSingle OpQRP4new6419
2021-05-12 13:16:47NA4JCWopsTSingle OpHP225new6419
2021-05-11 16:07:51KP2M(KT3Y)CQ-MSOABCWHP436,531update6412
2021-05-10 19:10:24K4GMKRC SSTSingle OpLP1,320new6415
2021-05-10 01:05:20N4ZRKRC SSTSingle OpHP1,431new6415
2021-05-10 01:05:19WA3AERKRC SSTSingle OpHP1,224new6415
2021-05-10 01:02:18K3JTKRC SSTSingle OpLP1,222new6415
2021-05-10 01:02:02N3QEKRC SSTSingle OpHP3,388new6415
2021-05-09 23:15:25N4NTOArQPSOCWLP50new6413
 
2021-05-09 23:13:30N4NTOCQ-MSOABCWLP75new6412
2021-05-09 21:05:02K3SX50SprngSprntSingle OpHP130new6414
2021-05-09 18:41:44N3DUEArQPSOSSBHP795new6413
2021-05-09 17:35:12K4ORDArQPSOCWLP3,200new6413
2021-05-09 17:10:11W3FAVolta RTTYSOABLP1,040,832new6411
2021-05-09 15:42:43K4YCRVolta RTTYSOABHP4,178,372new6411
2021-05-09 15:42:10NJ4QCQ-MSOABCWLP126new6412
2021-05-09 15:13:21N3FZ7QPSO(A)CWHP5,796new6394
2021-05-09 15:10:24N3FZCQ-MSOABCWHP10,191new6412
2021-05-09 14:28:28N3UACQ-MSOSB/20CWLP16,870new6412
 
2021-05-09 13:05:50N3KNArQPSOMixedHP1,113new6413
2021-05-09 12:08:42N4ZRCQ-MSOABCWHP48,783new6412
2021-05-09 12:03:19N4AFCQ-MSOABCWHP304,804new6412
2021-05-09 11:33:03K3TNArQPSOCWHP2,726new6413
2021-05-09 02:18:16K1BZArQPSOMixedHP120new6413
2021-05-09 02:08:53W3LLArQPSOMixedHP3,007new6413
2021-05-09 02:04:07WA3FAEArQPSOMixedLP2,744new6413
2021-05-09 01:41:03W4VICNewEngQPM/SHP1,610new6397
 (@W4VIC)
2021-05-08 17:21:44AI4QQ7QPSOCWLP748new6394
2021-05-08 00:32:11K4ORDDeQPSingle OpLP40new6396
 
2021-05-08 00:27:41K4ORDInQPSingle OpLP1,000new6395
2021-05-08 00:21:43K4ORD7QPSOCWLP15,582new6394
2021-05-08 00:14:54K4ORDNewEngQPSingle OpLP12,784new6397
2021-05-07 23:26:36KC4DCWopsTSingle OpHP5,929new6402
2021-05-07 21:05:59K4GMKRC SSTSingle OpLP120new6410
2021-05-07 21:04:52N4ZRKRC SSTSingle OpHP540new6410
2021-05-07 21:01:05N3QEKRC SSTSingle OpHP2,728new6410
2021-05-07 20:47:06NJ4QKRC SSTSingle OpLP190new6410
2021-05-07 03:08:27K7SVNCCC SprintSingle OpLP1,989new6409
2021-05-07 03:06:49KS4SCWopsTSingle OpLP289new6402
 
2021-05-07 03:04:34WJ9BNCCC SprintSingle OpLP1,260new6409
2021-05-07 03:02:00N3QENCCC SprintSingle OpLP2,214new6409
2021-05-07 02:17:04N3QENCCC RY-SprintSingle OpLP440new6408
2021-05-06 12:42:29K4GM(@K4GMS)CWopsTSingle OpLP1,600new6404
2021-05-06 04:06:30N2YOCWopsTSingle OpLP8,554new6404
2021-05-06 04:03:44WJ9BCWopsTSingle OpLP19,072new6404
2021-05-06 04:03:27K7SVCWopsTSingle OpLP18,270new6404
2021-05-06 04:02:33NA4JCWopsTSingle OpHP6,075new6404
2021-05-06 04:02:15K3JTCWopsTSingle OpHP7,728new6404
2021-05-06 04:01:21N3QECWopsTSingle OpHP21,684new6404
 
2021-05-06 03:18:17K2ACXCWopsTSingle OpLP100new6404
2021-05-06 00:37:45N8IINewEngQPSingle OpLP45,828new6397
2021-05-06 00:29:25K4GMCWopsTSingle OpLP256new6403
2021-05-05 22:17:41W4VIC7QPSO(A)CWHP363new6394
2021-05-05 20:06:22WA3AERCWopsTSingle OpHP5,846new6403
2021-05-05 20:05:24K7SVCWopsTSingle OpLP16,899new6403
2021-05-05 20:04:43WJ9BCWopsTSingle OpLP8,366new6403
2021-05-05 20:04:12W3ULCWopsTSingle OpHP1,444new6403
2021-05-05 20:03:08N1LNCWopsTSingle OpHP43,200new6403
2021-05-05 20:02:29N3AMCWopsTSingle OpHP13,920new6403
 
2021-05-05 20:02:09K3JTCWopsTSingle OpHP9,500new6403
2021-05-05 20:01:49N4YDUCWopsTSingle OpHP46,460new6403
2021-05-05 20:01:34N4AFCWopsTSingle OpHP32,178new6403
2021-05-05 20:01:03N4ZRCWopsTSingle OpHP4,900new6403
2021-05-05 16:03:41K8LF7QPSOCWHP9,480update6394
2021-05-05 14:29:10K8LFInQPSingle OpHP1,040new6395
2021-05-05 14:27:21K8LFDeQPSingle OpHP120new6396
2021-05-05 14:25:48K8LFNewEngQPSingle OpHP15,496new6397
2021-05-05 14:12:48N4KWCWopsTSingle OpHP4,224new6402
2021-05-05 14:11:39W3ULCWopsTSingle OpHP2,070new6402
 
2021-05-05 14:09:04KE4SCWopsTSingle OpHP6,400new6402
2021-05-05 14:07:24K3GHHCWopsTSingle OpHP3,304new6402
2021-05-05 14:06:11WJ9BCWopsTSingle OpLP7,553new6402
2021-05-05 14:06:10K7SVCWopsTSingle OpLP28,461new6402
2021-05-05 14:04:34AB4PPCWopsTSingle OpLP225new6402
2021-05-05 14:03:48N4ZRCWopsTSingle OpHP14,161new6402
2021-05-05 14:03:25WA3AERCWopsTSingle OpHP5,621new6402
2021-05-05 14:02:57N3AMCWopsTSingle OpHP12,120new6402
2021-05-05 14:02:24K3JTCWopsTSingle OpHP5,929new6402
2021-05-05 14:02:18N4AFCWopsTSingle OpHP32,508new6402
 
2021-05-05 14:02:18N1LNCWopsTSingle OpHP44,254new6402
2021-05-05 14:02:00K4GMCWopsTSingle OpLP1,332new6402
2021-05-05 14:01:57K2WKCWopsTSingle OpHP25,281new6402
2021-05-05 13:53:17K1BZCWopsTSingle OpHP1,599new6402
2021-05-05 13:27:43NA4JCWopsTSingle OpHP289new6402
2021-05-04 03:40:15AA3SDeQPSingle OpHP410update6396
2021-05-04 01:43:34N4CWDeQPSingle OpHP120update6396
2021-05-04 00:02:47N3DUEInQPSingle OpHP1,036new6395
2021-05-03 23:54:50N3DUENewEngQPSingle OpHP2,415new6397
2021-05-03 23:43:56N3DUE7QPSO(A)SSBHP2,214new6394
 
2021-05-03 23:37:34WA3FAENewEngQPSingle OpLP15,249new6397
2021-05-03 23:36:14WA3FAEInQPSingle OpLP2,013new6395
2021-05-03 23:34:32WA3FAEDeQPSingle OpLP360new6396
2021-05-03 23:33:16WA3FAE7QPSOMixedLP8,979new6394
2021-05-03 23:15:45N3DUEDeQPSingle OpHP90new6396
2021-05-03 22:53:16N4NTO7QPSOCWLP200new6394
2021-05-03 21:06:25AA3SNewEngQPSingle OpHP54,240new6397
2021-05-03 18:57:18KK4ADQNewEngQPSingle OpLP4,224new6397
2021-05-03 18:54:58KK4ADQInQPSingle OpLP3,344new6395
2021-05-03 18:37:06N4CWInQPSingle OpHP216new6395
 
2021-05-03 18:22:33N4CWNewEngQPSingle OpHP4,797new6397
2021-05-03 18:17:45N4CW7QPSOCWHP6,156new6394
2021-05-03 16:47:04N8II7QPSOMixedLP147,244new6394
2021-05-03 15:10:21K3AU(@K2YWE)7QPSO(A)CWHP10,800new6394
2021-05-03 14:40:34K1EFINewEngQPSingle OpLP1,457new6397
2021-05-03 14:32:29K3AU(@K2YWE)NewEngQPSingle OpHP11,938new6397
2021-05-03 14:30:20K3AU(@K2YWE)InQPSingle OpHP18new6395
2021-05-03 14:22:20N3KNNewEngQPSingle OpHP6,450new6397
2021-05-03 14:21:12N3KNInQPSingle OpHP3,139new6395
2021-05-03 14:19:50N3KNDeQPSingle OpHP320new6396
 
2021-05-03 14:18:49N3KN7QPSO(A)MixedHP9,072new6394
2021-05-03 14:17:33WA3EKL7QPM/SHP44,702update6394
 (N3DPB,K6ZO,KB3VQC,K3MTR,@WA3EKL)
2021-05-03 14:06:33K3TNInQPSingle OpHP4update6395
2021-05-03 13:36:04K8SYHNewEngQPSingle OpLP8,018new6397
2021-05-03 13:32:40K8SYH7QPSOCWLP6,804new6394
2021-05-03 13:01:00K4QSNewEngQPSingle OpHP40,064new6397
2021-05-03 12:05:07N1LNInQPSingle OpLP672new6395
2021-05-03 12:03:43N1LNDeQPSingle OpLP41new6396
2021-05-03 12:01:24N1LNNewEngQPSingle OpLP12,420new6397
2021-05-03 12:00:05N1LN7QPSO(A)CWLP10,863new6394
 
2021-05-03 11:45:38NJ4QNewEngQPSingle OpLP704new6397
2021-05-03 11:37:58NJ4QKRC SSTSingle OpLP286new6398
2021-05-03 10:00:24K3TNNewEngQPSingle OpHP9,460new6397
2021-05-03 09:58:22K3TN7QPSO(A)CWHP576new6394
2021-05-03 06:31:36WJ9B7QPSOCWQRP90,588new6394
2021-05-03 04:06:29WA3EKLNewEngQPM/SHP3,939new6397
 (K3MTR,N3DPB,K6ZO,KB3VQC,@WA3EKL)
2021-05-03 01:53:18K3YDXInQPSingle OpLP2,772new6395
2021-05-03 01:51:03K3YDXNewEngQPSingle OpLP11,904new6397
2021-05-03 01:48:59K3YDXDeQPSingle OpLP880new6396
2021-05-03 01:46:37N4NTOInQPSingle OpLP50new6395
 
2021-05-03 01:46:26K3YDX7QPSOMixedLP2,001new6394
2021-05-03 01:45:00N4NTODeQPSingle OpLP40new6396
2021-05-03 01:32:39WA3EKLInQPM/SHP1,815new6395
 (K3MTR,N3DPB,K6ZO,KB3VQC,@WA3EKL)
2021-05-03 01:20:18W3LLDeQPSingle OpHP90new6396
2021-05-03 01:13:13NN3WNewEngQPSingle OpHP52,626new6397
2021-05-03 01:12:21W3LLNewEngQPSingle OpHP392new6397
2021-05-03 01:06:25N3XFNewEngQPSingle OpHP37,056new6397
2021-05-03 01:06:02K4GMNewEngQPSingle OpLP24,864new6397
2021-05-03 01:04:12K4GMInQPSingle OpLP1,232new6395
2021-05-03 01:03:35K3JTKRC SSTSingle OpLP225new6398
 
2021-05-03 01:01:54K4GMDeQPSingle OpLP240new6396
2021-05-03 01:01:29N3QEKRC SSTSingle OpHP3,780new6398
2021-05-03 00:59:59K4GM7QPSO(A)CWLP5,310new6394
2021-05-03 00:57:13W3LLInQPSingle OpHP45new6395
2021-05-03 00:44:02W4VICInQPSingle OpHP4,346new6395
2021-05-03 00:20:39W3LL7QPSO(A)MixedHP3,645new6394
2021-05-03 00:14:47N4CFNewEngQPSingle OpHP13,224new6397
2021-05-03 00:06:20K1BZNewEngQPSingle OpHP6,588new6397
2021-05-02 23:59:10K7SV7QPSO(A)MixedLP38,325new6394
2021-05-02 23:34:24W3MAMNewEngQPSingle OpLP594new6397
 
2021-05-02 20:48:44N3QEInQPSingle OpHP390new6395
2021-05-02 20:47:56N3QEDeQPSingle OpHP300new6396
2021-05-02 20:47:26N3QE7QPSO(A)CWHP8,190new6394
2021-05-02 17:54:56K1BZDeQPSingle OpHP150new6396
2021-05-02 17:50:43WA3AERInQPSingle OpHP918new6395
2021-05-02 17:46:46WA3AERNewEngQPSingle OpHP5,508new6397
2021-05-02 17:43:26WA3AERDeQPSingle OpHP160new6396
2021-05-02 17:39:53WA3AER7QPSO(A)CWHP15,729new6394
2021-05-02 15:28:30K1BZ7QPSO(A)MixedHP2,544new6394
2021-05-02 15:22:12K1BZInQPSingle OpHP1,595new6395
 
2021-05-02 12:14:20N4AFARISO CWHP308,126new6393
2021-05-01 11:30:55N3QECWopsTSingle OpHP400new6384
2021-04-30 21:05:09N4ZRKRC SSTSingle OpHP759new6391
2021-04-30 21:03:28K3JTKRC SSTSingle OpLP588new6391
2021-04-30 21:01:54N3QEKRC SSTSingle OpHP2,952new6391
2021-04-30 20:31:43K4MILKRC SSTSingle OpLP120new6391
2021-04-30 03:02:52K7SVNCCC SprintSingle OpLP1,496new6390
2021-04-30 03:01:56N3QENCCC SprintSingle OpLP1,496new6390
2021-04-30 02:16:15N3QENCCC RY-SprintSingle OpLP585new6389
2021-04-29 12:20:00KC4DCWopsTSingle OpHP8,550new6384
 
2021-04-29 12:17:04K4GMCWopsTSingle OpLP1,849new6386
2021-04-29 04:50:42N2YOCWopsTSingle OpLP3,025new6386
2021-04-29 04:07:43WA4JUKCWopsTSingle OpHP4,096new6386
2021-04-29 04:04:39K7SVCWopsTSingle OpLP18,886new6386
2021-04-29 04:04:37NA4JCWopsTSingle OpHP11,336new6386
2021-04-29 04:03:11K2KWCWopsTSingle OpLP10,201new6386
2021-04-29 04:02:24K3JTCWopsTSingle OpHP8,281new6386
2021-04-29 04:01:49N4AFCWopsTSingle OpHP34,320new6386
2021-04-29 04:00:50N3QECWopsTSingle OpHP23,104new6386
2021-04-28 20:52:05K4HQKCWopsTSingle OpHP1,225new6385
 
2021-04-28 20:17:58WJ9BCWopsTSingle OpLP12,100new6385
2021-04-28 20:12:29WA4JUK(WA4JUIK)CWopsTSingle OpHP4,096new6385
2021-04-28 20:07:37WA3AERCWopsTSingle OpHP4,355new6385
2021-04-28 20:05:19W4YECWopsTSingle OpLP1,600new6385
2021-04-28 20:04:44K7SVCWopsTSingle OpLP15,125new6385
2021-04-28 20:03:20N3CKICWopsTSingle OpLP3,025new6385
2021-04-28 20:02:48N4AFCWopsTSingle OpHP31,486new6385
2021-04-28 20:02:33NA4JCWopsTSingle OpHP7,744new6385
2021-04-28 20:02:27K3JTCWopsTSingle OpHP7,396new6385
2021-04-28 20:02:08N4ZRCWopsTSingle OpHP11,664new6385
 
2021-04-28 20:01:20W3ULCWopsTSingle OpHP625new6385
2021-04-28 20:00:27N3QECWopsTSingle OpHP13,456new6385
2021-04-28 18:41:42K4KZSPDX RTTYSOABHP3,000new6372
2021-04-28 16:12:42N3CWCWopsTSingle OpHP1,638new6384
2021-04-28 14:13:52W2CDOCWopsTSingle OpHP2,025new6384
2021-04-28 14:12:23N4KWCWopsTSingle OpHP4,356new6384
2021-04-28 14:08:58AC3U(W3UL)CWopsTSingle OpLP380new6384
2021-04-28 14:07:44NA4JCWopsTSingle OpHP16,900new6384
2021-04-28 14:06:28K3GHHCWopsTSingle OpHP2,208new6384
2021-04-28 14:04:04WA3AERCWopsTSingle OpHP6,399new6384
 
2021-04-28 14:03:50K7SVCWopsTSingle OpLP21,128new6384
2021-04-28 14:03:01K3JTCWopsTSingle OpHP6,241new6384
2021-04-28 14:02:58WJ9BCWopsTSingle OpLP5,320new6384
2021-04-28 14:02:37K4GMCWopsTSingle OpLP3,080new6384
2021-04-28 14:02:26N1LNCWopsTSingle OpHP39,552new6384
2021-04-28 14:01:46N4ZRCWopsTSingle OpHP11,664new6384
2021-04-28 14:01:27N4AFCWopsTSingle OpHP39,770new6384
2021-04-28 13:43:25NJ4QCWopsTSingle OpLP1,156new6384
2021-04-27 21:25:37N8IIFlQPSOABMixedLP210,336new6375
2021-04-27 20:52:46K3CCRCQMM DXM/SHP302,040new6356
 (W3GB,N3UM,@K3CCR)
 
2021-04-27 18:37:05N4CWFlQPMulti-Op MobileCWLP765,520new6375
 (W4TMO,@N4CW)
2021-04-27 18:28:43K3AU(@K2YWE)FlQPSOABMixedHP8,466new6375
2021-04-27 13:26:01K4WWPFlQPSOABSSBLP588new6375
2021-04-27 13:17:35K8LFMSQPSingle OpHP220new6315
2021-04-27 13:12:39K8LFMiQPSingle OpHP1,564new6357
2021-04-27 13:08:00K8LFFlQPSOABCWHP11,440new6375
2021-04-27 02:43:37KS4SFlQPSOABMixedLP5,432new6375
2021-04-27 01:35:37K4GMKRC SSTSingle OpLP648new6380
2021-04-26 15:41:23N3DUEFlQPSOAB(A)SSBHP3,774new6375
2021-04-26 15:06:34N3KNFlQPSOAB(A)MixedHP13,020new6375
 
2021-04-26 11:26:14N1LNFlQPSOAB(A)CWLP30,336new6375
2021-04-26 10:09:23W2CDOFlQPSOAB(A)CWLP168new6375
2021-04-26 02:27:08W3GVXSPDX RTTYSOABHP30,000new6372
2021-04-26 01:32:45N3QEKRC SSTSingle OpHP3,311new6380
2021-04-26 01:30:54K3JTKRC SSTSingle OpLP110new6380
2021-04-26 01:28:37KW2AKRC SSTSingle OpQRP209new6380
2021-04-26 01:06:08K3YDXFlQPSOABMixedLP25,254new6375
2021-04-26 01:06:02K3JTFlQPSOAB(A)CWLP22,860new6375
2021-04-26 00:44:18K4HQKFlQPSOABCWHP13,140new6375
2021-04-26 00:16:01WA3FAEFlQPSOABMixedLP60,102new6375
 
2021-04-25 23:44:09K3TNFlQPSOAB(A)CWHP20,628new6375
2021-04-25 23:22:20N3CKIFlQPSOABCWLP14,620new6375
2021-04-25 22:54:47N3AMFlQPSOAB(A)CWHP15,916new6375
2021-04-25 22:52:23N3CWFlQPSOAB(A)CWLP22,880new6375
2021-04-25 22:50:49KK4ADQFlQPSOABSSBLP3,276new6375
2021-04-25 22:28:07N3MNFlQPSOAB(A)MixedHP943new6375
2021-04-25 22:18:51WJ9BFlQPSOABCWQRP58,410new6375
2021-04-25 22:15:21K4ORDFlQPSOABCWLP34,320new6375
2021-04-25 22:11:24N4NTOFlQPSOABCWLP2,784new6375
2021-04-25 22:08:48K7SVFlQPSOABMixedLP214,642new6375
 
2021-04-25 22:04:52K4GMFlQPSOABCWLP30,380new6375
2021-04-25 22:04:35WA3AERFlQPSOAB(A)CWHP7,210new6375
2021-04-25 21:45:04W3LLFlQPSOAB(A)MixedHP52,136new6375
2021-04-25 21:21:04N3QEBARTG 75Single OpHP1,640new6374
2021-04-25 21:12:49NJ4QFlQPSOAB(A)CWLP12,384new6375
2021-04-25 20:10:23W3MAMFlQPSOABSSBLP10,580new6375
2021-04-25 14:10:47WT3KFlQPSOAB(A)CWHP11,000new6375
2021-04-25 02:18:40W3MAMSPDX RTTYSOABLP10,332new6372
2021-04-25 00:02:37KA4RRUMiQPSingle OpHP390new6357
2021-04-25 00:00:04KA4RRUOnQPSO CWHP352new5642
 
2021-04-24 17:49:11NJ4QKRC SSTSingle OpLP408update6371
2021-04-23 23:54:06K3JTKRC SSTSingle OpLP378new6371
2021-04-23 21:01:28N3QEKRC SSTSingle OpHP2,142new6371
2021-04-23 20:57:27KW2AKRC SSTSingle OpQRP96new6371
2021-04-23 03:04:27K7SVNCCC SprintSingle OpLP2,565new6370
2021-04-23 03:02:51N4AFNCCC SprintSingle OpLP3,024new6370
2021-04-23 03:01:10N3QENCCC SprintSingle OpLP1,938new6370
2021-04-23 02:16:36N3QENCCC RY-SprintSingle OpLP690new6369
2021-04-23 01:08:46K4ORDMiQPSingle OpLP1,368new6357
2021-04-23 00:59:11K4ORDGaQPSingle OpCWLP3,968new6336
 
2021-04-22 22:27:25K3SX432SprngSprntSingle OpLP4new6367
2021-04-22 13:23:15W8ZN432SprngSprntSingle OpHP1,000new6367
2021-04-22 04:07:30WJ9BCWopsTSingle OpLP12,852new6366
2021-04-22 04:05:46NA4JCWopsTSingle OpHP13,334new6366
2021-04-22 04:05:44N2YOCWopsTSingle OpLP8,008new6366
2021-04-22 04:05:18K3JTCWopsTSingle OpHP15,129new6366
2021-04-22 04:05:15K7SVCWopsTSingle OpLP24,255new6366
2021-04-22 04:04:17W4YECWopsTSingle OpLP3,240new6366
2021-04-22 04:03:50K2ACXCWopsTSingle OpLP484new6366
2021-04-22 04:02:13K4GMCWopsTSingle OpLP5,250new6366
 
2021-04-22 04:01:35NN3WCWopsTSingle OpHP13,407new6366
2021-04-22 02:47:01K4GMCWopsTSingle OpLP361new6365
2021-04-22 01:46:05W4NF432SprngSprntSingle OpLP35new6367
2021-04-22 00:49:50N3XF432SprngSprntSingle OpLP42new6367
2021-04-21 21:02:31N8IIGaQPSingle OpMixedLP31,395new6336
2021-04-21 20:11:11K4HQKCWopsTSingle OpHP2,916new6365
2021-04-21 20:08:09AC3U(W3UL)CWopsTSingle OpLP1,444new6365
2021-04-21 20:03:56K7SVCWopsTSingle OpLP15,748new6365
2021-04-21 20:02:58WJ9BCWopsTSingle OpLP11,556new6365
2021-04-21 20:02:40N4YDUCWopsTSingle OpLP1,849new6365
 
2021-04-21 20:02:14N1LNCWopsTSingle OpHP39,168new6365
2021-04-21 20:02:13NJ4QCWopsTSingle OpLP64new6365
2021-04-21 20:01:32NA4JCWopsTSingle OpHP4,761new6365
2021-04-21 20:01:28N4ZRCWopsTSingle OpHP6,724new6365
2021-04-21 20:01:24K3JTCWopsTSingle OpHP5,041new6365
2021-04-21 19:53:30N3QECWopsTSingle OpLP400new6365
2021-04-21 19:48:42W4YECWopsTSingle OpLP1,089new6365
2021-04-21 18:20:40NA4JCWopsTSingle OpHP16,900new6364
2021-04-21 15:03:14WJ9BCWopsTSingle OpLP7,290new6364
2021-04-21 14:12:42N4KWCWopsTSingle OpHP2,968new6364
 
2021-04-21 14:10:55K3GHHCWopsTSingle OpHP3,364new6364
2021-04-21 14:05:12KE4SCWopsTSingle OpHP4,624new6364
2021-04-21 14:04:40K7SVCWopsTSingle OpLP21,009new6364
2021-04-21 14:03:11N1LNCWopsTSingle OpHP37,720new6364
2021-04-21 14:02:58K4GMCWopsTSingle OpLP3,306new6364
2021-04-21 14:02:31N4AFCWopsTSingle OpHP45,562new6364
2021-04-21 14:02:17N4ZRCWopsTSingle OpHP12,321new6364
2021-04-21 14:02:13K3JTCWopsTSingle OpHP6,723new6364
2021-04-21 14:01:41N3AMCWopsTSingle OpHP17,000new6364
2021-04-21 14:00:43WT3KCWopsTSingle OpHP11,881new6364
 
2021-04-21 13:52:14W3ULCWopsTSingle OpHP2,450new6364
2021-04-21 13:41:55NJ4QCWopsTSingle OpLP961new6364
2021-04-21 13:40:40W2CDOCWopsTSingle OpHP2,303new6364
2021-04-21 13:34:09K2KWCWopsTSingle OpLP2,401new6364
2021-04-21 13:32:07N3FZCWopsTSingle OpHP1,369new6364
2021-04-20 12:37:06K4WWPOnQPSO SSBLP63new5642
2021-04-19 21:41:37N1EKMiQPSingle OpHP16new6357
2021-04-19 17:27:34K7SVMiQPSingle OpLP2,400new6357
2021-04-19 17:25:08K7SVOnQPSO CWLP4,420new5642
2021-04-19 16:33:53W4VICCQMM DXSOABHP66,780new6356
 
2021-04-19 16:00:41K4HQKHolyland DXSO MixedHP24new6352
2021-04-19 14:49:07K3YDXOnQPSO MixedLP20new5642
2021-04-19 12:06:08NJ4QCQMM DXSOSB/20LP240new6356
2021-04-19 02:38:44N3CKIOnQPSO CWLP960new5642
2021-04-19 02:29:19N3FZCQMM DXSOABHP21,056update6356
2021-04-19 02:20:44N4CWOnQPSO CWHP6,480new5642
2021-04-19 02:08:31N4CWMiQPSingle OpHP1,976new6357
2021-04-19 01:41:12N4CWCQMM DXSOABHP23,305new6356
2021-04-19 01:16:29K3AU(K2YWE)CQMM DXSOABHP23,188new6356
2021-04-19 01:05:59K4GMKRC SSTSingle OpLP1,260new6358
 
2021-04-19 01:04:42WA3AERKRC SSTSingle OpHP2,072new6358
2021-04-19 01:01:57K3JTKRC SSTSingle OpLP1,080new6358
2021-04-19 01:01:57N3QEKRC SSTSingle OpHP4,300new6358
2021-04-19 00:44:24K4MILKRC SSTSingle OpLP374new6358
2021-04-19 00:16:04K3AJCQMM DXM/SHP1,615,772new6356
 (K3WA,WR3R,WT3K,ND3D,@K3AJ)
2021-04-19 00:07:45WA4JUKCQMM DXSOABHP105,944new6356
2021-04-18 23:19:39K2GO(@W4RN)CQMM DXSOABHP790,962new6356
2021-04-18 22:31:06N3KNMiQPSingle OpHP5,782new6357
2021-04-18 22:18:42N3KNOnQPSO MixedHP10,192new5642
2021-04-18 22:08:45K3TNOnQPSO CWHP4,080new5642
 
2021-04-18 22:04:52K3TNMiQPSingle OpHP600new6357
2021-04-18 21:41:48N4NTOCQMM DXSOSB/40LP174new6356
2021-04-18 21:32:13N4NTOOnQPSO CWLP32new5642
2021-04-18 21:30:58N4NTOMiQPSingle OpLP96new6357
2021-04-18 18:14:50WA3AERCQMM DXSOABHP58,911new6356
2021-04-18 18:03:30WA3FAEMiQPSingle OpLP1,914new6357
2021-04-18 17:59:47WA3FAEOnQPSO MixedLP6,996new5642
2021-04-18 17:33:47W3LLOnQPSO MixedHP12,586new5642
2021-04-18 14:49:41N3CKIMiQPSingle OpLP864new6357
2021-04-18 14:46:03N3DUEMiQPSingle OpHP1,620new6357
 
2021-04-18 10:22:14W3LLMiQPSingle OpHP11,918new6357
2021-04-18 01:42:45W4BBTMiQPSingle OpHP805new6357
2021-04-17 17:49:21KW2AKRC SSTSingle OpQRP357new6351
2021-04-16 21:02:21K7SVKRC SSTSingle OpLP1,920new6351
2021-04-16 21:00:55N3QEKRC SSTSingle OpHP3,479new6351
2021-04-16 20:45:28K4MILKRC SSTSingle OpQRP72new6351
2021-04-16 20:45:02NJ4QKRC SSTSingle OpLP900new6351
2021-04-16 12:41:31N3QENCCC SprintSingle OpLP1,728new6350
2021-04-16 03:02:40WJ9BNCCC SprintSingle OpLP1,472new6350
2021-04-16 03:02:32K7SVNCCC SprintSingle OpLP1,575new6350
 
2021-04-16 03:02:06N4AFNCCC SprintSingle OpLP2,604new6350
2021-04-16 02:26:24N3QENCCC RY-SprintSingle OpLP602new6349
2021-04-16 02:20:46NR4ONCCC RY-SprintSingle OpLP243new6349
2021-04-15 22:17:56KS4SGaQPSingle OpMixedLP6,050new6336
2021-04-15 12:20:37KC4DCWopsTSingle OpHP12,996new6345
2021-04-15 04:08:35WJ9BCWopsTSingle OpLP15,210new6347
2021-04-15 04:08:07WA4JUKCWopsTSingle OpHP3,481new6347
2021-04-15 04:02:13K3JTCWopsTSingle OpHP8,091new6347
2021-04-15 04:00:58N3QECWopsTSingle OpHP14,884new6347
2021-04-15 03:42:30K2ACXCWopsTSingle OpLP625new6347
2021-04-15 03:38:56K4GM(@K4GMS)CWopsTSingle OpLP729new